Date String (YYYY-MM-DD hh:mm:ss) UTC,Instrument flags,Ambient pressure (hPa),Sample flow (lpm),Bypass flow (lpm),Sample temperature (°C),Ambient temperature (°C),ASC tube jacket temperature (°C),LED temperature (°C),Box temperature (°C),Sample RH (%),Span deviation,Mass concentration (μg/m³),Mass concentration (μg/m³),Mass concentration (μg/m³)
DateTimeUTC,F1_M11,P_M11,Q1_M11,Q2_M11,T1_M11,T2_M11,T3_M11,T4_M11,T5_M11,U1_M11,ZSPAN_M11,X0_M11,X2_M11,X1_M11
2022-10-17 07:00:00,,0834.1,4.99,0.00,27.4,25.7,00.0,36.3,29.1,12.7,0000.0,0011.17,0005.04,0004.54
2022-10-17 07:01:00,,0834.1,5.00,0.00,27.4,25.7,00.0,36.3,29.2,12.6,0000.0,0010.47,0005.06,0004.55
2022-10-17 07:02:00,,0834.0,4.99,0.00,27.4,25.6,00.0,36.3,29.2,12.6,0000.0,0010.25,0005.04,0004.55
2022-10-17 07:03:00,,0834.0,5.00,0.00,27.4,25.6,00.0,36.3,29.1,12.5,0000.0,0010.07,0005.02,0004.55
2022-10-17 07:04:00,,0834.1,5.00,0.00,27.4,25.6,00.0,36.3,29.1,12.5,0000.0,0009.91,0005.04,0004.55
2022-10-17 07:05:00,,0834.1,5.00,0.00,27.4,25.6,00.0,36.3,29.1,12.5,0000.0,0010.02,0005.02,0004.54
2022-10-17 07:06:00,,0834.1,5.01,0.00,27.3,25.6,00.0,36.3,29.1,12.5,0000.0,0010.62,0004.98,0004.52
2022-10-17 07:07:00,,0834.1,5.00,0.00,27.3,25.6,00.0,36.3,29.0,12.4,0000.0,0011.19,0004.96,0004.50
2022-10-17 07:08:00,,0834.0,5.01,0.00,27.3,25.6,00.0,36.2,29.0,12.5,0000.0,0010.76,0004.96,0004.49
2022-10-17 07:09:00,,0834.1,4.98,0.00,27.3,25.5,00.0,36.2,29.0,12.5,0000.0,0010.99,0004.91,0004.47
2022-10-17 07:10:00,,0834.0,5.02,0.00,27.3,25.5,00.0,36.2,29.1,12.4,0000.0,0011.33,0004.89,0004.44
2022-10-17 07:11:00,,0834.0,4.99,0.00,27.3,25.5,00.0,36.2,29.1,12.4,0000.0,0009.96,0004.86,0004.40
2022-10-17 07:12:00,,0834.0,5.01,0.00,27.3,25.5,00.0,36.2,29.0,12.4,0000.0,0009.89,0004.78,0004.37
2022-10-17 07:13:00,,0834.0,4.99,0.00,27.3,25.5,00.0,36.2,29.0,12.3,0000.0,0010.13,0004.76,0004.35
2022-10-17 07:14:00,,0834.0,4.99,0.00,27.2,25.5,00.0,36.2,29.0,12.3,0000.0,0010.09,0004.73,0004.32
2022-10-17 07:15:00,,0834.0,5.01,0.00,27.2,25.5,00.0,36.2,29.0,12.3,0000.0,0010.57,0004.69,0004.29
2022-10-17 07:16:00,,0834.0,4.98,0.00,27.2,25.5,00.0,36.2,29.0,12.3,0000.0,0011.00,0004.68,0004.26
2022-10-17 07:17:00,,0834.0,5.02,0.00,27.2,25.5,00.0,36.1,29.0,12.2,0000.0,0010.35,0004.67,0004.24
2022-10-17 07:18:00,,0833.9,4.99,0.00,27.2,25.5,00.0,36.1,29.0,12.2,0000.0,0009.83,0004.68,0004.22
2022-10-17 07:19:00,,0833.9,5.01,0.00,27.2,25.4,00.0,36.1,29.0,12.3,0000.0,0009.91,0004.62,0004.21
2022-10-17 07:20:00,,0833.9,5.00,0.00,27.2,25.4,00.0,36.1,29.0,12.4,0000.0,0009.74,0004.60,0004.20
2022-10-17 07:21:00,,0833.9,5.00,0.00,27.2,25.4,00.0,36.1,28.9,12.4,0000.0,0009.31,0004.59,0004.21
2022-10-17 07:22:00,,0833.9,5.01,0.00,27.2,25.4,00.0,36.1,28.9,12.5,0000.0,0009.35,0004.61,0004.22
2022-10-17 07:23:00,,0833.9,4.99,0.00,27.2,25.4,00.0,36.1,29.0,12.4,0000.0,0009.56,0004.63,0004.24
2022-10-17 07:24:00,,0833.9,5.01,0.00,27.1,25.4,00.0,36.1,28.9,12.3,0000.0,0009.27,0004.62,0004.24
2022-10-17 07:25:00,,0833.9,4.99,0.00,27.1,25.4,00.0,36.1,28.9,12.3,0000.0,0009.87,0004.62,0004.24
2022-10-17 07:26:00,,0833.9,5.01,0.00,27.1,25.4,00.0,36.1,28.9,12.5,0000.0,0009.61,0004.63,0004.24
2022-10-17 07:27:00,,0833.9,5.00,0.00,27.1,25.4,00.0,36.1,28.9,12.5,0000.0,0008.85,0004.60,0004.24
2022-10-17 07:28:00,,0833.9,4.99,0.00,27.1,25.4,00.0,36.0,28.9,12.5,0000.0,0008.79,0004.58,0004.24
2022-10-17 07:29:00,,0833.9,5.02,0.00,27.1,25.4,00.0,36.0,28.8,12.6,0000.0,0008.54,0004.54,0004.24
2022-10-17 07:30:00,,0833.9,4.99,0.00,27.1,25.4,00.0,36.0,28.8,12.5,0000.0,0008.48,0004.55,0004.25
2022-10-17 07:31:00,,0833.8,5.00,0.00,27.1,25.3,00.0,36.0,28.8,12.6,0000.0,0008.31,0004.57,0004.25
2022-10-17 07:32:00,,0833.8,5.00,0.00,27.1,25.3,00.0,36.0,28.8,12.7,0000.0,0008.77,0004.58,0004.26
2022-10-17 07:33:00,,0833.9,4.99,0.00,27.0,25.3,00.0,36.0,28.7,12.6,0000.0,0009.36,0004.57,0004.25
2022-10-17 07:34:00,,0833.9,5.00,0.00,27.0,25.3,00.0,36.0,28.7,12.6,0000.0,0009.23,0004.56,0004.24
2022-10-17 07:35:00,,0833.8,5.01,0.00,27.0,25.3,00.0,36.0,28.7,12.5,0000.0,0009.22,0004.56,0004.25
2022-10-17 07:36:00,,0833.8,4.99,0.00,27.0,25.3,00.0,36.0,28.7,12.6,0000.0,0009.01,0004.59,0004.26
2022-10-17 07:37:00,,0833.8,5.01,0.00,27.0,25.2,00.0,35.9,28.7,12.6,0000.0,0009.12,0004.58,0004.27
2022-10-17 07:38:00,,0833.9,4.99,0.00,27.0,25.2,00.0,35.9,28.7,12.6,0000.0,0009.37,0004.61,0004.29
2022-10-17 07:39:00,,0833.8,5.01,0.00,27.0,25.2,00.0,35.9,28.7,12.6,0000.0,0009.98,0004.65,0004.30
2022-10-17 07:40:00,,0833.8,4.99,0.00,26.9,25.2,00.0,35.9,28.6,12.7,0000.0,0010.09,0004.67,0004.33
2022-10-17 07:41:00,,0833.8,5.01,0.00,26.9,25.2,00.0,35.9,28.6,12.7,0000.0,0010.27,0004.67,0004.34
2022-10-17 07:42:00,,0833.8,5.00,0.00,26.9,25.2,00.0,35.9,28.6,12.8,0000.0,0010.62,0004.66,0004.34
2022-10-17 07:43:00,,0833.8,5.01,0.00,26.9,25.2,00.0,35.9,28.6,12.8,0000.0,0010.06,0004.67,0004.35
2022-10-17 07:44:00,,0833.7,4.99,0.00,26.9,25.2,00.0,35.9,28.6,12.9,0000.0,0009.48,0004.69,0004.36
2022-10-17 07:45:00,,0833.8,5.00,0.00,26.9,25.2,00.0,35.9,28.6,12.9,0000.0,0009.54,0004.73,0004.38
2022-10-17 07:46:00,,0833.8,5.00,0.00,26.9,25.2,00.0,35.8,28.6,13.0,0000.0,0009.57,0004.75,0004.39
2022-10-17 07:47:00,,0833.8,4.99,0.00,26.9,25.1,00.0,35.8,28.6,13.0,0000.0,0009.23,0004.77,0004.42
2022-10-17 07:48:00,,0833.8,5.01,0.00,26.9,25.1,00.0,35.8,28.6,13.1,0000.0,0009.06,0004.83,0004.45
2022-10-17 07:49:00,,0833.8,4.99,0.00,26.8,25.1,00.0,35.8,28.5,13.2,0000.0,0008.95,0004.85,0004.47
2022-10-17 07:50:00,,0833.8,5.00,0.00,26.8,25.1,00.0,35.8,28.5,13.2,0000.0,0008.47,0004.88,0004.50
2022-10-17 07:51:00,,0833.7,5.01,0.00,26.8,25.1,00.0,35.8,28.6,13.2,0000.0,0008.39,0004.90,0004.52
2022-10-17 07:52:00,,0833.7,4.99,0.00,26.8,25.1,00.0,35.8,28.6,13.2,0000.0,0008.33,0004.92,0004.53
2022-10-17 07:53:00,,0833.7,5.01,0.00,26.8,25.1,00.0,35.8,28.5,13.2,0000.0,0008.18,0004.97,0004.56
2022-10-17 07:54:00,,0833.7,4.99,0.00,26.8,25.1,00.0,35.8,28.5,13.2,0000.0,0008.28,0005.01,0004.57
2022-10-17 07:55:00,,0833.8,5.02,0.00,26.8,25.1,00.0,35.7,28.5,13.2,0000.0,0008.38,0005.02,0004.59
2022-10-17 07:56:00,,0833.7,4.99,0.00,26.8,25.1,00.0,35.7,28.5,13.2,0000.0,0008.53,0005.00,0004.60
2022-10-17 07:57:00,,0833.7,5.01,0.00,26.7,25.0,00.0,35.7,28.5,13.2,0000.0,0008.66,0004.99,0004.60
2022-10-17 07:58:00,,0833.7,4.99,0.00,26.7,25.0,00.0,35.7,28.5,13.2,0000.0,0008.61,0004.97,0004.60
2022-10-17 07:59:00,,0833.7,4.99,0.00,26.7,25.0,00.0,35.7,28.4,13.1,0000.0,0008.49,0004.95,0004.58
